Theta_e
351 351 351 352 342 330 331 329 333 335 335 332 334 334 333 333 333 333 332 333 334 333 334 334 333 332 332 332 331 328 326 322 321 322 320 323 323 324 323 319 319 318 317
351 350 350 351 339 332 334 332 335 337 337 334 334 334 334 335 334 333 332 333 332 332 332 333 332 331 331 331 331 330 329 327 322 322 323 321 323 325 324 321 320 318 317
351 348 346 347 338 334 334 332 336 337 334 334 333 333 335 333 331 331 333 331 331 331 332 332 332 331 330 329 329 328 328 328 326 322 323 323 323 323 323 322 321 319 318
349 347 344 345 343 335 334 333 332 332 330 331 332 334 333 330 330 332 333 332 331 332 333 332 330 329 328 327 328 327 327 326 326 323 323 323 324 323 322 321 320 318 318
348 345 344 344 337 335 335 335 335 335 334 333 334 334 333 331 332 333 334 333 331 332 332 330 328 327 326 325 325 325 326 326 325 324 323 324 324 323 322 321 319 318 319
348 344 343 339 337 336 335 334 337 338 337 336 335 334 333 331 332 334 335 334 332 332 331 330 328 326 325 324 324 325 324 325 325 324 324 323 323 323 321 319 318 318 320
348 345 343 339 337 335 337 332 339 340 328 336 335 335 333 334 334 334 334 332 332 331 330 329 328 326 323 322 322 322 324 325 324 324 323 322 322 320 319 318 318 318 319
348 346 342 338 337 336 335 335 335 337 332 334 334 335 334 334 334 333 333 329 326 329 330 329 326 325 321 323 321 322 322 321 320 319 318 317 317 318 318 318 318 317 318
347 345 342 339 337 338 337 336 336 335 334 335 335 334 334 333 333 333 333 330 329 329 329 326 323 322 322 321 322 321 320 320 318 317 316 315 315 317 317 316 317 318 318
344 343 343 341 340 339 337 336 336 335 336 335 335 334 329 328 333 333 329 329 329 329 326 323 323 321 320 320 320 318 317 316 314 314 314 314 314 314 316 316 316 317 317
344 342 341 340 340 339 337 337 337 336 336 334 328 325 327 332 333 329 327 328 328 326 324 323 322 320 320 319 317 315 313 312 311 311 311 311 311 312 315 317 317 315 315
341 339 339 338 338 337 337 332 332 331 329 326 326 325 327 331 329 326 327 327 325 324 323 321 318 318 318 316 314 313 310 309 309 309 310 310 310 310 311 313 316 315 315
337 336 336 337 337 337 334 331 328 327 328 329 327 329 330 328 325 325 325 325 323 321 319 317 316 315 315 313 311 309 307 308 307 306 306 307 307 308 308 311 314 314 316
331 330 331 333 331 331 329 328 327 328 326 330 331 328 327 325 324 324 323 321 319 318 316 315 316 314 313 311 309 307 306 305 304 303 303 304 305 305 306 309 310 312 314
334 333 333 332 330 327 326 327 326 325 326 331 329 328 325 323 323 321 319 318 317 316 314 315 313 312 310 308 307 304 303 303 302 301 301 301 302 302 303 307 309 311 313
330 331 330 327 326 326 324 324 327 330 330 327 324 323 323 322 321 319 317 316 314 312 313 313 311 308 306 304 302 301 301 301 299 299 299 299 300 300 301 305 308 310 312
331 332 331 327 326 325 324 324 321 320 320 320 320 319 318 318 316 313 313 314 312 311 312 309 307 305 303 301 299 298 298 299 298 298 298 298 299 299 300 303 305 308 310
332 328 327 326 325 325 324 324 321 317 316 315 316 314 312 312 311 311 311 311 310 310 309 307 304 300 298 298 297 296 296 298 297 297 297 298 298 298 300 302 303 304 308
325 325 325 326 327 326 323 323 320 317 315 313 311 311 311 311 311 310 309 309 309 307 305 302 300 299 299 298 296 294 293 296 296 296 297 297 298 298 299 300 301 303 306
328 328 328 327 327 325 323 321 319 317 315 314 313 313 313 312 312 311 309 308 306 305 303 302 301 300 299 297 293 291 295 296 296 296 296 297 297 298 298 299 300 302 304
327 326 326 325 325 323 322 321 320 318 316 315 316 315 314 313 311 310 308 307 306 305 304 302 301 300 297 294 292 294 295 295 295 295 295 296 297 297 298 298 300 301 302
323 324 324 326 324 323 322 322 321 318 317 316 316 314 313 312 310 308 307 306 305 305 304 302 298 296 295 291 294 295 295 295 294 294 294 295 296 297 297 297 298 300 301
326 325 323 323 323 322 321 320 320 319 318 317 315 314 313 311 308 307 306 306 305 305 303 299 296 294 292 289 293 294 294 294 293 293 294 294 296 296 297 297 297 298 299
323 322 322 322 322 321 320 320 319 318 317 316 315 314 313 310 308 306 305 305 305 303 300 297 295 293 289 289 292 293 294 294 294 293 293 293 295 296 296 296 297 297 297
321 321 322 321 320 320 319 318 318 317 317 316 316 314 314 310 308 306 304 305 304 301 298 296 294 293 289 289 289 290 292 294 294 293 293 293 294 295 295 295 295 296 296
314 316 315 315 315 317 317 317 317 316 314 313 313 313 313 311 309 307 304 303 303 300 298 296 295 293 291 292 292 291 289 291 294 293 292 293 294 294 294 294 295 295 295
Wind_Speed
44 45 42 39 35 29 26 25 24 21 20 20 18 17 16 15 13 12 11 10 11 12 13 15 17 17 20 19 19 19 19 18 10 17 18 25 29 31 31 28 26 28 29
41 43 45 41 38 33 30 27 25 24 23 21 20 19 18 17 15 13 11 11 12 12 13 15 18 17 18 20 21 23 25 26 21 21 21 19 27 32 33 32 30 31 32
34 41 42 44 41 38 34 29 26 24 23 23 22 21 20 18 16 12 12 12 12 13 15 18 20 18 19 18 19 22 26 29 29 22 26 21 21 29 31 35 35 36 33
34 40 43 48 49 44 33 27 24 23 22 24 23 22 19 16 14 14 13 14 16 18 19 19 18 17 18 19 20 22 24 25 24 21 21 23 21 22 24 25 26 24 27
34 37 45 47 36 42 33 19 26 25 24 23 21 21 21 16 15 17 17 17 18 20 20 18 18 17 18 19 20 23 23 24 22 16 18 19 20 20 21 23 24 27 28
33 35 26 27 26 27 20 5 36 27 30 25 27 27 25 19 17 18 20 19 20 21 20 20 19 18 19 19 19 20 22 23 22 13 16 16 24 23 24 21 24 26 14
29 24 25 30 31 37 26 30 35 33 29 37 35 30 25 19 18 21 20 18 19 19 21 22 21 20 18 16 21 21 19 15 15 15 16 21 22 30 26 25 24 27 33
26 25 29 32 36 39 36 31 40 38 36 34 32 29 23 20 19 23 19 18 21 19 21 20 18 18 17 18 20 18 14 14 15 16 18 24 28 33 29 29 32 34 38
24 27 30 35 36 39 33 32 31 31 28 31 25 22 19 17 26 21 21 22 19 20 18 16 14 15 16 17 14 13 16 18 18 19 22 25 25 26 27 27 28 26 27
22 24 30 32 28 20 17 17 18 19 12 12 10 6 12 26 34 23 18 18 14 16 14 12 12 13 14 15 13 11 15 17 21 25 26 26 23 25 24 23 27 28 31
20 22 24 25 21 15 10 14 14 13 15 17 14 15 18 35 32 18 15 15 13 13 12 12 11 10 12 10 9 9 13 16 21 21 20 21 22 23 26 28 32 33 37
23 22 22 20 18 16 16 16 17 16 17 15 20 18 20 29 23 16 11 11 10 11 10 11 10 9 8 8 8 10 13 14 18 18 15 18 22 24 30 31 34 40 42
26 25 24 22 21 21 23 20 19 17 13 10 10 17 16 13 13 10 8 9 9 8 9 11 11 11 8 7 7 11 12 14 15 15 16 19 23 28 31 31 36 37 38
30 29 25 21 21 22 21 21 17 17 11 13 9 14 10 12 11 8 7 7 8 8 10 11 9 7 6 5 8 8 9 11 13 16 19 23 25 29 30 30 31 34 33
30 29 25 20 18 17 11 7 9 13 13 9 11 9 9 11 9 8 8 8 8 10 8 5 7 6 5 6 8 7 8 12 15 17 19 23 25 27 29 30 29 31 24
24 25 21 19 17 12 8 5 5 7 6 8 6 5 7 6 7 7 8 10 11 10 7 5 5 3 4 6 7 8 10 14 15 17 18 19 20 25 27 29 26 24 24
17 21 18 18 16 13 12 13 11 8 10 9 9 6 5 7 6 2 4 7 10 8 5 4 1 3 3 3 5 8 9 13 14 15 17 17 18 23 24 24 24 22 24
16 16 15 12 12 14 15 15 15 17 16 12 10 9 9 7 4 2 2 3 5 2 1 2 2 1 1 3 6 9 11 11 13 15 16 17 19 19 20 20 22 20 23
11 13 12 12 14 16 16 14 13 13 13 15 13 11 9 6 4 3 1 2 3 3 3 2 3 2 2 5 8 10 9 9 10 13 16 18 19 18 18 18 20 20 21
9 10 12 11 10 11 13 16 17 15 15 17 17 14 11 8 6 3 3 2 1 2 3 3 3 2 3 6 8 7 4 7 9 12 15 18 19 19 17 17 18 20 19
6 7 8 10 12 15 17 17 16 14 15 16 16 13 11 9 7 6 4 4 4 5 5 5 4 3 3 5 5 2 4 6 8 11 14 17 19 20 19 16 16 14 15
6 6 7 8 11 13 14 13 14 15 15 15 14 13 11 9 7 7 7 7 7 8 7 6 4 4 4 3 1 2 4 6 8 11 13 15 17 18 19 17 16 16 17
7 7 7 8 10 10 11 12 12 10 12 13 14 13 13 12 12 12 10 9 10 9 9 7 4 3 3 2 2 2 4 6 9 10 12 14 15 16 17 16 15 15 15
7 7 7 7 8 9 11 11 10 11 11 12 14 15 16 17 18 16 12 11 10 12 11 7 4 2 2 3 2 1 2 5 7 9 10 11 12 13 14 15 14 15 14
6 6 7 8 9 10 12 12 13 15 15 16 17 19 20 21 20 18 13 12 12 14 12 8 5 3 3 3 2 2 2 3 5 8 8 9 8 10 12 13 13 13 16
3 2 3 4 6 9 11 13 16 17 17 17 18 18 21 24 23 21 17 14 14 16 14 11 7 5 6 3 1 1 2 2 2 5 5 6 7 8 11 12 13 12 14
Wind_Direction
219 219 218 214 209 206 206 208 207 209 214 220 222 220 230 234 235 242 252 266 273 278 268 270 272 269 263 264 263 260 261 252 247 284 281 296 299 304 311 315 317 320 322
216 217 217 214 209 206 209 213 215 213 215 218 214 225 232 242 244 245 255 265 266 266 269 269 272 275 271 270 266 265 265 267 255 271 286 285 294 300 302 309 309 313 314
208 214 212 214 210 208 209 209 209 211 217 214 215 224 232 232 240 243 252 262 266 269 271 272 274 272 275 275 274 276 276 275 270 260 274 281 285 294 300 303 306 307 310
204 209 209 211 212 207 205 207 212 217 219 219 221 228 232 229 235 249 258 267 272 272 273 272 273 272 277 282 286 285 284 282 278 267 271 278 281 286 286 287 292 297 296
203 205 212 213 199 203 190 203 239 225 228 234 238 238 237 230 240 258 264 270 270 274 272 266 272 275 280 285 290 287 286 285 277 264 272 283 287 285 283 292 290 299 295
206 211 206 196 186 178 169 257 247 235 239 231 237 235 235 235 246 263 270 274 273 272 273 273 274 278 285 292 287 281 285 282 277 265 278 279 284 287 292 287 296 303 299
207 206 193 186 173 177 176 205 241 239 243 241 237 234 234 242 253 262 266 265 267 271 275 273 272 277 288 291 291 289 289 283 278 277 274 277 286 291 290 286 288 287 287
199 192 190 181 182 182 187 203 215 232 235 240 240 238 238 244 260 267 267 265 273 278 273 269 265 276 285 291 291 289 289 288 297 301 294 300 297 296 287 286 287 286 287
191 188 186 187 184 188 214 207 212 224 237 243 242 240 254 279 269 268 266 272 280 278 270 260 268 276 286 287 287 293 295 300 307 309 310 313 309 304 297 294 285 290 290
187 186 194 196 196 215 209 183 199 215 227 232 246 319 316 280 281 271 260 266 271 266 259 266 275 282 282 280 282 291 296 309 314 319 319 318 316 315 310 300 291 289 293
177 188 184 187 203 207 192 193 188 192 198 196 210 233 265 268 276 256 254 256 254 257 262 271 279 285 282 275 278 295 302 312 315 315 321 321 320 325 320 315 312 298 291
153 162 164 161 157 167 169 156 169 181 193 216 241 237 241 261 261 254 246 233 235 245 261 275 289 292 273 265 283 298 305 312 316 323 327 327 325 323 320 319 319 316 304
135 134 143 149 154 169 174 183 199 198 221 213 208 240 249 242 236 227 222 236 248 257 276 283 290 279 244 255 294 301 319 324 332 335 330 328 327 329 328 329 324 321 319
138 140 143 154 172 188 183 177 212 231 187 221 225 237 241 236 224 214 217 231 251 264 276 288 281 209 211 278 309 326 336 340 342 336 336 336 336 334 331 333 318 320 327
160 164 170 183 183 194 211 189 200 203 217 239 221 233 233 225 219 218 235 247 258 263 267 236 174 194 250 312 336 340 338 347 348 346 346 342 337 335 334 339 331 327 331
168 173 179 188 195 200 185 173 201 209 218 213 213 190 198 212 222 230 256 266 261 252 218 188 193 238 328 343 337 341 348 350 351 349 347 344 338 337 335 340 337 335 331
176 186 198 197 193 185 196 184 159 149 172 172 163 167 186 196 211 252 287 262 231 228 214 197 237 338 347 336 342 342 337 342 344 352 349 347 343 342 344 341 338 338 335
201 199 208 223 223 219 219 201 190 175 162 148 152 154 156 155 162 177 159 94 126 157 220 294 322 298 319 340 344 334 331 340 349 354 354 354 352 345 346 344 342 337 331
227 236 234 246 234 218 204 192 195 180 164 150 157 170 166 170 181 191 243 336 326 295 275 206 187 195 308 323 324 324 327 343 357 360 2 0 359 352 348 347 343 345 347
235 229 224 218 198 179 180 182 178 183 179 178 186 187 181 191 204 233 298 324 259 204 196 204 228 254 292 307 318 323 343 356 8 8 7 6 4 1 354 351 351 347 350
187 185 204 198 196 187 178 180 186 195 193 194 200 193 195 204 209 218 228 229 231 225 217 230 256 259 280 308 324 9 19 12 12 11 10 8 7 3 4 3 0 1 1
214 211 209 205 191 186 194 198 197 195 195 193 195 198 204 217 232 233 228 227 228 229 228 227 250 271 279 287 66 59 22 15 10 11 12 11 7 8 9 10 8 10 8
219 220 209 213 208 199 189 186 190 194 193 197 201 202 211 224 226 227 227 221 222 231 213 223 254 266 241 200 153 73 31 20 13 11 10 9 9 10 14 12 12 14 13
197 198 198 201 191 187 191 197 202 211 215 217 219 223 225 226 226 226 223 217 219 215 207 221 238 252 205 193 196 215 11 14 13 12 9 10 11 17 21 23 23 22 26
187 166 164 176 186 194 203 207 210 218 222 226 233 234 231 229 227 225 221 212 217 212 213 216 218 221 197 180 186 247 288 344 1 7 10 12 21 31 34 34 37 44 35
124 152 187 210 204 196 206 209 215 216 221 229 233 233 230 228 227 222 218 215 218 215 216 212 209 195 177 172 136 6 306 290 327 0 10 20 37 48 50 51 48 42 50